{"data":{"norad_id":63272,"intl_designator":"2025-053H","name":"STARLINK-11619 [DTC]","alt_names":[],"object_type":"PAYLOAD","status":"ACTIVE","operator":null,"country":"US","launch_date":"2025-03-15","launch_site_code":"AFETR","launch_vehicle":null,"mission":null,"orbit_class":"UNKNOWN","rcs_meters":null,"size_class":null,"mass_kg":null,"dimensions":null,"purposes":["comms"],"wikipedia_slug":null,"has_3d_model":false,"image_url":null,"decayed_at":null,"tle_current":{"epoch":"2026-09-20T08:19:35.890752Z","epoch_age_seconds":172050,"freshness":"FRESH","line1":"1 63272U 25053H   26263.34694318  .00022097  00000+0  17515-3 0  9993","line2":"2 63272  43.0019  18.9353 0001725 271.7867  88.2803 15.70852731 88285","mean_motion":15.70852731,"eccentricity":0.0001725,"inclination_deg":43.0019,"raan_deg":18.9353,"arg_perigee_deg":271.7867,"mean_anomaly_deg":88.2803,"bstar":0.00017515,"rev_number":8828,"period_min":91.669955533215,"perigee_km":355.29695647987,"apogee_km":357.62039198748,"semimajor_km":6734.5956742337,"source":"CELESTRAK","updated_at":"2026-09-21T09:00:34.963649Z"}}}